User: anonymous   Login
Location: Fontevrault
(47.1823°N, 0.0493°E)
Time: 23:06:17
(UTC+00:00)
Language:

FALCON 9 DEB - Orbit

View from above orbital plane
View from above orbital plane
View from above satellite
View from above satellite

Ground track
Ground track

The orbit data is extracted from the following two-line orbital elements,

1 44295U 19029BN  21269.14350927  .00007957  00000-0  16299-3 0  9994
2 44295  53.0009  59.1400 0009542 118.8412 241.3553 15.47050646133498
Epoch (UTC): 26 September 2021 03:26:39
Eccentricity: 0.0009542
inclination: 53.0009°
perigee height: 419 km
apogee height: 432 km
right ascension of ascending node: 59.1400°
argument of perigee: 118.8412°
revolutions per day: 15.47050646
mean anomaly at epoch: 241.3553°
orbit number at epoch: 13349

The dashed part of the orbit path shows where the satellite is in the earth's shadow,  

DLR